Blattenbach Aussen Messungen

Zurück zum Überblick

Zeitpunkt Temperatur Temperatur Kabelsensor Luftfeuchte
23.12.2018 17:48:07 8,7 C 8,2 C 86,0%
23.12.2018 17:41:08 8,5 C 8,2 C 87,0%
23.12.2018 17:34:08 8,4 C 8,2 C 87,0%
23.12.2018 17:27:06 8,3 C 8,2 C 87,0%
23.12.2018 17:20:08 8,3 C 8,2 C 87,0%
23.12.2018 17:13:09 8,3 C 8,2 C 87,0%
23.12.2018 17:06:05 8,3 C 8,2 C 86,0%
23.12.2018 16:59:07 8,2 C 8,1 C 87,0%
23.12.2018 16:52:08 8,1 C 8,1 C 87,0%
23.12.2018 16:45:05 8,0 C 8,1 C 87,0%
23.12.2018 16:38:08 8,0 C 8,1 C 87,0%
23.12.2018 16:31:08 8,0 C 8,1 C 86,0%
23.12.2018 16:24:07 8,0 C 8,1 C 86,0%
23.12.2018 16:17:06 8,1 C 8,1 C 86,0%
23.12.2018 16:10:06 8,2 C 8,1 C 85,0%
23.12.2018 16:03:06 8,2 C 8,1 C 86,0%
23.12.2018 15:56:08 8,1 C 8,0 C 85,0%
23.12.2018 15:49:10 8,3 C 8,0 C 85,0%
23.12.2018 15:42:05 8,4 C 8,0 C 85,0%
23.12.2018 15:35:06 8,5 C 8,0 C 85,0%
23.12.2018 15:28:08 8,6 C 8,0 C 85,0%
23.12.2018 15:21:06 8,5 C 8,0 C 85,0%
23.12.2018 15:14:09 8,6 C 8,0 C 85,0%
23.12.2018 15:07:05 8,8 C 8,0 C 85,0%
23.12.2018 15:00:08 8,8 C 8,0 C 85,0%
23.12.2018 14:53:08 8,9 C 8,0 C 85,0%
23.12.2018 14:46:08 8,8 C 8,0 C 85,0%
23.12.2018 14:39:08 8,9 C 8,0 C 85,0%
23.12.2018 14:32:08 8,9 C 8,0 C 85,0%
23.12.2018 14:25:09 8,9 C 8,0 C 84,0%
23.12.2018 14:18:09 8,9 C 8,0 C 84,0%
23.12.2018 14:11:08 8,9 C 8,0 C 85,0%
23.12.2018 14:04:08 8,8 C 8,0 C 85,0%
23.12.2018 13:57:09 8,8 C 8,0 C 84,0%
23.12.2018 13:50:05 8,9 C 8,0 C 84,0%
23.12.2018 13:43:09 8,9 C 8,0 C 85,0%
23.12.2018 13:36:04 9,0 C 8,0 C 84,0%
23.12.2018 13:29:05 9,0 C 8,0 C 85,0%
23.12.2018 13:22:08 9,0 C 8,0 C 85,0%
23.12.2018 13:15:05 8,9 C 8,0 C 85,0%
23.12.2018 13:08:05 8,9 C 8,0 C 85,0%
23.12.2018 13:01:08 8,9 C 8,1 C 85,0%
23.12.2018 12:54:08 9,0 C 8,1 C 86,0%
23.12.2018 12:47:08 8,9 C 8,1 C 86,0%
23.12.2018 12:40:07 8,8 C 8,1 C 86,0%
23.12.2018 12:33:05 8,7 C 8,1 C 86,0%
23.12.2018 12:26:09 8,6 C 8,1 C 85,0%
23.12.2018 12:19:08 8,6 C 8,1 C 86,0%
23.12.2018 12:12:06 8,6 C 8,1 C 85,0%
23.12.2018 12:05:05 8,5 C 8,2 C 86,0%